GW1238 Weather Reports


Display with metric or nautical units.
time (UTC)temp
F
wind
direction
speed
MPH
gust
MPH
rain 1hr
in
rain 24hr
in
rain mn
in
humidity
%
barometer
mb
20260503013505 58 17 2.0 3.0 0.00 0.00 0.00 56 1020.2
20260503013003 58 359 2.0 3.0 0.00 0.00 0.00 55 1020.2
20260503012500 59 342 2.0 4.0 0.00 0.00 0.00 56 1020.2
20260503011956 59 157 0.0 4.0 0.00 0.00 0.00 54 1020.1
20260503011453 59 114 0.0 6.0 0.00 0.00 0.00 54 1020.1
20260503010950 59 306 2.0 4.0 0.00 0.00 0.00 53 1020.1
20260503010447 59 324 2.0 3.0 0.00 0.00 0.00 52 1020.1
20260503005944 60 311 1.0 2.0 0.00 0.00 0.00 50 1020.1
20260503005441 60 2 2.0 3.0 0.00 0.00 0.00 50 1019.9
20260503004938 61 292 0.0 3.0 0.00 0.00 0.00 51 1019.8
20260503004435 61 217 1.0 1.0 0.00 0.00 0.00 49 1019.4
20260503003932 61 354 0.0 0.0 0.00 0.00 0.00 47 1019.4
20260503003429 61 324 0.0 1.0 0.00 0.00 0.00 47 1019.2
20260503002926 61 297 1.0 2.0 0.00 0.00 0.00 51 1019.1
20260503002423 61 316 1.0 2.0 0.00 0.00 0.00 48 1019.1
20260503001919 61 294 1.0 2.0 0.00 0.00 0.00 51 1019.0
20260503001416 61 336 2.0 3.0 0.00 0.00 0.00 47 1018.8
20260503000914 61 290 1.0 2.0 0.00 0.00 0.00 52 1018.9
20260503000411 62 291 1.0 3.0 0.00 0.00 0.00 48 1018.8
20260502235908 62 310 0.0 1.0 0.00 0.00 0.00 51 1018.5
20260502235405 62 311 0.0 2.0 0.00 0.00 0.00 53 1018.5
20260502234902 62 292 2.0 2.0 0.00 0.00 0.00 50 1018.4
20260502234358 62 320 2.0 3.0 0.00 0.00 0.00 43 1018.2
20260502233855 63 62 0.0 1.0 0.00 0.00 0.00 50 1018.1
20260502233351 63 279 2.0 2.0 0.00 0.00 0.00 45 1017.9
20260502232848 63 302 2.0 3.0 0.00 0.00 0.00 42 1018.1
20260502232345 64 301 1.0 2.0 0.00 0.00 0.00 44 1018.0
20260502231841 64 315 1.0 3.0 0.00 0.00 0.00 44 1018.0
20260502231339 64 306 1.0 2.0 0.00 0.00 0.00 43 1018.1
20260502230837 65 156 0.0 4.0 0.00 0.00 0.00 39 1018.1
20260502230335 65 286 2.0 4.0 0.00 0.00 0.00 38 1018.1
20260502225831 65 34 1.0 2.0 0.00 0.00 0.00 40 1018.1
20260502225328 65 273 4.0 6.0 0.00 0.00 0.00 40 1017.9
20260502224825 66 264 3.0 4.0 0.00 0.00 0.00 37 1018.1
20260502224321 66 274 4.0 4.0 0.00 0.00 0.00 39 1017.9
20260502223819 66 310 2.0 4.0 0.00 0.00 0.00 36 1018.0
20260502223317 66 278 4.0 6.0 0.00 0.00 0.00 36 1018.1
20260502222814 66 277 4.0 6.0 0.00 0.00 0.00 36 1018.0
20260502222311 66 355 2.0 8.0 0.00 0.00 0.00 36 1018.0
20260502221807 66 297 4.0 4.0 0.00 0.00 0.00 36 1017.8
20260502221303 66 300 5.0 6.0 0.00 0.00 0.00 36 1017.8
20260502220801 65 352 4.0 9.0 0.00 0.00 0.00 35 1017.8
20260502220256 66 250 3.0 6.0 0.00 0.00 0.00 37 1017.7
20260502215753 67 300 2.0 3.0 0.00 0.00 0.00 36 1017.8
20260502215250 66 289 1.0 3.0 0.00 0.00 0.00 43 1017.9
20260502214748 66 310 2.0 6.0 0.00 0.00 0.00 37 1017.9
20260502214244 67 67 2.0 3.0 0.00 0.00 0.00 38 1017.6
20260502213742 66 24 3.0 7.0 0.00 0.00 0.00 36 1017.7
20260502213239 66 311 2.0 4.0 0.00 0.00 0.00 38 1017.7
20260502212738 66 39 2.0 6.0 0.00 0.00 0.00 37 1017.7
20260502212236 66 317 2.0 3.0 0.00 0.00 0.00 40 1017.7
20260502211731 65 269 2.0 4.0 0.00 0.00 0.00 37 1017.7
20260502211228 65 276 3.0 4.0 0.00 0.00 0.00 39 1017.6
20260502210725 65 270 4.0 6.0 0.00 0.00 0.00 38 1017.7
20260502210222 65 294 3.0 6.0 0.00 0.00 0.00 38 1017.5
20260502205720 65 338 1.0 7.0 0.00 0.00 0.00 39 1017.6
20260502205216 67 266 2.0 4.0 0.00 0.00 0.00 36 1017.9
20260502204713 67 319 2.0 3.0 0.00 0.00 0.00 37 1017.7
20260502204211 66 246 1.0 3.0 0.00 0.00 0.00 39 1017.7
20260502203708 66 35 1.0 3.0 0.00 0.00 0.00 38 1017.8
20260502203206 65 292 4.0 8.0 0.00 0.00 0.00 38 1017.7
20260502202659 66 341 3.0 7.0 0.00 0.00 0.00 35 1017.7
20260502202158 67 61 4.0 4.0 0.00 0.00 0.00 37 1017.6
20260502201655 67 276 2.0 7.0 0.00 0.00 0.00 34 1017.8
20260502201152 67 304 4.0 7.0 0.00 0.00 0.00 37 1017.8
20260502200647 67 254 2.0 9.0 0.00 0.00 0.00 40 1017.7
20260502200144 67 125 1.0 3.0 0.00 0.00 0.00 39 1017.8
20260502195643 66 258 5.0 8.0 0.00 0.00 0.00 35 1017.7
20260502195138 68 271 1.0 6.0 0.00 0.00 0.00 36 1017.6
20260502194635 68 238 2.0 4.0 0.00 0.00 0.00 37 1017.8
20260502194132 65 95 2.0 3.0 0.00 0.00 0.00 44 1017.8
20260502193629 66 43 4.0 4.0 0.00 0.00 0.00 37 1017.9
20260502193126 65 281 1.0 4.0 0.00 0.00 0.00 38 1017.8
20260502192621 64 340 2.0 4.0 0.00 0.00 0.00 39 1017.9
20260502192119 64 83 2.0 6.0 0.00 0.00 0.00 44 1018.2
20260502191615 63 34 5.0 7.0 0.00 0.00 0.00 42 1018.2
20260502191113 64 78 6.0 8.0 0.00 0.00 0.00 45 1018.1
20260502190610 64 61 5.0 7.0 0.00 0.00 0.00 52 1017.9
20260502190108 64 58 5.0 7.0 0.00 0.00 0.00 41 1017.9
20260502185602 63 96 2.0 4.0 0.00 0.00 0.00 42 1017.9
20260502185059 63 66 4.0 8.0 0.00 0.00 0.00 50 1018.3
20260502184555 63 67 4.0 7.0 0.00 0.00 0.00 46 1018.2
20260502184051 64 46 8.0 10.0 0.00 0.00 0.00 50 1018.1
20260502183548 64 77 5.0 7.0 0.00 0.00 0.00 40 1018.3
20260502183044 64 67 3.0 3.0 0.00 0.00 0.00 42 1018.3
20260502182539 64 0 4.0 6.0 0.00 0.00 0.00 42 1018.4
20260502182035 64 94 1.0 7.0 0.00 0.00 0.00 38 1018.4
20260502181533 65 204 0.0 4.0 0.00 0.00 0.00 40 1018.5
20260502181032 63 82 4.0 7.0 0.00 0.00 0.00 44 1018.4
20260502180528 63 60 8.0 9.0 0.00 0.00 0.00 52 1018.4
20260502170447 60 70 5.0 7.0 0.00 0.00 0.00 49 1019.1
20260502163931 60 48 8.0 9.0 0.00 0.00 0.00 53 1019.4
20260502163427 60 58 6.0 10.0 0.00 0.00 0.00 53 1019.3
20260502162925 61 65 5.0 7.0 0.00 0.00 0.00 50 1019.2
20260502162421 60 68 8.0 8.0 0.00 0.00 0.00 51 1019.6
20260502161918 59 76 6.0 8.0 0.00 0.00 0.00 48 1019.5
20260502161414 60 83 3.0 7.0 0.00 0.00 0.00 50 1019.8
20260502160912 60 357 2.0 7.0 0.00 0.00 0.00 55 1019.6
20260502160410 59 91 2.0 6.0 0.00 0.00 0.00 50 1019.5
20260502151849 59 47 4.0 6.0 0.00 0.00 0.00 51 1019.5
20260502151345 59 58 4.0 4.0 0.00 0.00 0.00 48 1019.3
20260502150843 59 15 2.0 4.0 0.00 0.00 0.00 48 1019.0
20260502150339 60 85 6.0 8.0 0.00 0.00 0.00 46 1019.0
20260502130727 55 295 6.0 8.0 0.00 0.00 0.00 60 1018.8
20260502130225 56 15 1.0 2.0 0.00 0.00 0.00 62 1018.5
20260502123711 55 25 1.0 4.0 0.00 0.00 0.00 64 1018.3
20260502123208 55 342 1.0 2.0 0.00 0.00 0.00 66 1018.3
20260502122704 54 314 1.0 3.0 0.00 0.00 0.00 67 1018.3
20260502122201 54 19 1.0 6.0 0.00 0.00 0.00 67 1018.0
20260502121659 54 283 2.0 3.0 0.00 0.00 0.00 67 1018.3
20260502121156 53 284 4.0 4.0 0.00 0.00 0.00 67 1018.2
20260502120653 53 301 2.0 3.0 0.00 0.00 0.00 68 1018.3
20260502120150 53 28 0.0 3.0 0.00 0.00 0.00 67 1018.1
20260502115647 53 295 2.0 4.0 0.00 0.00 0.00 68 1018.2
20260502115143 53 308 0.0 1.0 0.00 0.00 0.00 69 1018.1
20260502114639 53 310 2.0 2.0 0.00 0.00 0.00 68 1018.1
20260502114137 53 272 1.0 3.0 0.00 0.00 0.00 66 1017.9
20260502113634 53 275 2.0 3.0 0.00 0.00 0.00 66 1018.2
20260502113132 53 277 2.0 3.0 0.00 0.00 0.00 67 1018.1
20260502112630 53 294 1.0 2.0 0.00 0.00 0.00 67 1018.2
20260502112127 53 277 1.0 4.0 0.00 0.00 0.00 66 1018.2
20260502111625 53 306 0.0 2.0 0.00 0.00 0.00 65 1017.9
20260502111122 54 312 3.0 4.0 0.00 0.00 0.00 68 1017.7
20260502110620 53 16 1.0 2.0 0.00 0.00 0.00 66 1017.9
20260502110117 53 329 2.0 3.0 0.00 0.00 0.00 64 1017.9
20260502105614 53 329 0.0 2.0 0.00 0.00 0.00 65 1017.9
20260502105111 53 46 0.0 2.0 0.00 0.00 0.00 65 1017.5
20260502104608 54 288 1.0 3.0 0.00 0.00 0.00 67 1017.5
20260502104106 54 256 1.0 2.0 0.00 0.00 0.00 66 1017.4
20260502103603 54 286 2.0 3.0 0.00 0.00 0.00 66 1017.6
20260502103101 54 311 2.0 4.0 0.00 0.00 0.00 63 1017.4
20260502102557 54 266 3.0 3.0 0.00 0.00 0.00 64 1017.4
20260502102054 54 299 2.0 4.0 0.00 0.00 0.00 64 1017.3
20260502101552 54 50 3.0 6.0 0.00 0.00 0.00 65 1017.6
20260502101050 54 319 2.0 4.0 0.00 0.00 0.00 63 1017.5
20260502100549 54 285 3.0 6.0 0.00 0.00 0.00 64 1017.6
20260502091523 54 288 2.0 4.0 0.00 0.00 0.00 61 1017.3
20260502091021 54 289 2.0 4.0 0.00 0.00 0.00 62 1017.4
20260502090517 54 273 3.0 4.0 0.00 0.00 0.00 61 1017.5
20260502071412 56 306 2.0 3.0 0.00 0.00 0.00 56 1018.1
20260502070910 56 308 2.0 4.0 0.00 0.00 0.00 56 1018.2
20260502070408 56 322 2.0 3.0 0.00 0.00 0.00 56 1018.7
20260502065906 56 346 2.0 2.0 0.00 0.00 0.00 57 1018.5
20260502065404 56 4 1.0 3.0 0.00 0.00 0.00 56 1018.7
20260502064902 56 303 2.0 2.0 0.00 0.00 0.00 59 1018.4
20260502064400 56 276 2.0 2.0 0.00 0.00 0.00 57 1018.5
20260502063856 56 281 1.0 3.0 0.00 0.00 0.00 55 1018.3
20260502063354 57 285 1.0 2.0 0.00 0.00 0.00 56 1018.5
20260502062851 56 284 2.0 3.0 0.00 0.00 0.00 54 1018.4
20260502062349 57 358 0.0 3.0 0.00 0.00 0.00 54 1018.2
20260502061848 57 308 1.0 4.0 0.00 0.00 0.00 54 1018.3
20260502061345 57 304 2.0 4.0 0.00 0.00 0.00 54 1018.2
20260502060841 57 305 1.0 2.0 0.00 0.00 0.00 55 1018.3
20260502060336 57 112 0.0 2.0 0.00 0.00 0.00 54 1018.7
20260502055834 57 69 0.0 0.0 0.00 0.00 0.00 54 1018.5
20260502055331 57 324 1.0 3.0 0.00 0.00 0.00 54 1018.7
20260502054831 58 306 2.0 4.0 0.00 0.00 0.00 53 1018.7
20260502054328 58 269 1.0 2.0 0.00 0.00 0.00 56 1018.8
20260502053825 58 300 2.0 2.0 0.00 0.00 0.00 52 1018.2
20260502053322 58 299 2.0 2.0 0.00 0.00 0.00 55 1018.1
20260502052820 58 324 0.0 2.0 0.00 0.00 0.00 52 1018.3
20260502052318 58 1 1.0 2.0 0.00 0.00 0.00 53 1018.2
20260502051815 58 326 0.0 2.0 0.00 0.00 0.00 53 1018.2
20260502051314 58 289 1.0 2.0 0.00 0.00 0.00 52 1018.2
20260502050810 58 332 2.0 3.0 0.00 0.00 0.00 54 1018.1
20260502050306 58 281 1.0 2.0 0.00 0.00 0.00 53 1018.2
20260502045803 59 37 0.0 0.0 0.00 0.00 0.00 53 1018.0
20260502045300 59 61 1.0 1.0 0.00 0.00 0.00 52 1018.3
20260502044757 59 315 2.0 2.0 0.00 0.00 0.00 52 1018.2
20260502044253 59 281 1.0 2.0 0.00 0.00 0.00 52 1018.1
20260502043751 59 18 1.0 4.0 0.00 0.00 0.00 54 1018.3
20260502043248 59 296 2.0 2.0 0.00 0.00 0.00 52 1018.1
20260502042747 59 353 2.0 3.0 0.00 0.00 0.00 52 1018.0
20260502042245 60 151 0.0 3.0 0.00 0.00 0.00 53 1018.1
20260502041743 60 72 1.0 2.0 0.00 0.00 0.00 54 1018.0
20260502041240 60 305 3.0 3.0 0.00 0.00 0.00 53 1018.2
20260502040736 60 43 1.0 3.0 0.00 0.00 0.00 53 1018.2
20260502040233 60 19 1.0 3.0 0.00 0.00 0.00 54 1018.2
20260502035729 60 126 0.0 2.0 0.00 0.00 0.00 56 1018.2
20260502035226 60 352 2.0 3.0 0.00 0.00 0.00 54 1018.4
20260502034724 60 72 1.0 2.0 0.00 0.00 0.00 57 1018.4
20260502034222 60 322 3.0 4.0 0.00 0.00 0.00 57 1018.1
20260502033720 60 348 2.0 7.0 0.00 0.00 0.00 57 1018.1
20260502033217 60 300 1.0 2.0 0.00 0.00 0.00 60 1018.2
20260502032714 61 353 1.0 2.0 0.00 0.00 0.00 62 1018.3
20260502032209 61 0 3.0 4.0 0.00 0.00 0.00 58 1018.2
20260502031708 61 320 3.0 4.0 0.00 0.00 0.00 60 1018.3
20260502031205 61 306 2.0 4.0 0.00 0.00 0.00 60 1018.1
20260502030704 61 315 2.0 3.0 0.00 0.00 0.00 60 1018.1
20260502030202 61 68 1.0 3.0 0.00 0.00 0.00 60 1018.0
20260502025658 61 68 0.0 2.0 0.00 0.00 0.00 60 1018.1
20260502025156 61 32 1.0 3.0 0.00 0.00 0.00 61 1017.9
20260502024654 62 103 0.0 3.0 0.00 0.00 0.00 61 1017.8
20260502024152 62 33 3.0 3.0 0.00 0.00 0.00 60 1017.8
20260502023650 62 1 2.0 3.0 0.00 0.00 0.00 61 1017.8
20260502023147 62 25 1.0 4.0 0.00 0.00 0.00 59 1017.9
20260502022644 62 20 1.0 2.0 0.00 0.00 0.00 59 1018.1
20260502022141 62 288 1.0 2.0 0.00 0.00 0.00 59 1017.8
20260502021638 62 77 0.0 1.0 0.00 0.00 0.00 62 1017.7
20260502021135 62 293 1.0 3.0 0.00 0.00 0.00 60 1017.9
20260502020632 62 277 1.0 2.0 0.00 0.00 0.00 61 1017.6
20260502020129 62 339 2.0 4.0 0.00 0.00 0.00 59 1017.9
20260502015627 62 329 1.0 3.0 0.00 0.00 0.00 59 1017.9
20260502015123 63 1 2.0 3.0 0.00 0.00 0.00 60 1017.6
20260502014620 63 252 2.0 4.0 0.00 0.00 0.00 60 1017.3
20260502014118 63 286 6.0 7.0 0.00 0.00 0.00 61 1017.6
20260502013613 63 309 4.0 4.0 0.00 0.00 0.00 61 1017.2